Zurück zum Katalog

SL-12 DEB

LostHEO
NORAD 43580·DEBRIS·🇷🇺 Russia

Gestartet Mar 1, 2010 von Baikonur Cosmodrome

Loading…

Nächste Überflüge (nächste 24 Stunden)

TLE

VeraltetSource: Space-Track

Epoche: Aug 13, 2018, 21:02 UTC

1 43580U 10007AG  18225.87640833 +.00007309 +00000-0 +26374-1 0  9997
2 43580 065.9834 149.9469 5744646 040.4471 352.8664 04.17812154002374

Verfolge SL-12 DEB in Echtzeit mit AllMySat

Download on the App Store